Location: Argonnex
(45.9500°N, 6.1333°E)
Time: 00:37:48
(UTC+00:00)

Cosmos 2082 - Pass Details

Date: 28 January 2023
Orbit: 834 x 854 km, 71.0° (Epoch: 24 March)

Event Time Altitude Azimuth Distance (km) Brightness Sun altitude
Rises 17:14:34 0° 335° (NNW) 3,396 6.9 -7.3°
Reaches altitude 10° 17:17:03 10° 338° (NNW) 2,457 6.2 -7.7°
Maximum altitude 17:22:39 67° 61° (ENE) 907 3.7 -8.6°
Drops below altitude 10° 17:28:13 10° 144° (SE) 2,440 5.9 -9.5°
Sets 17:30:40 0° 147° (SSE) 3,371 6.7 -9.9°
